Weather in Bagayevka

Russia / Saratov Oblast     51°25′02″N   45°49′32″E
temp.,
°C
wind,
m/s
gust,
m/s
humid.,
%
clouds,
%
prec.,
mm/h
press.,
hPa
HPBL,
m
18 april, sun
sun1801:00+9wnw5886100 0.0 1019467
04:00+7wnw59921 0.0 1019236
07:00+7wnw49891 0.0 1019231
10:00+11nw556468 0.0 1019615
13:00+14nw5550100 0.0 10181265
16:00+15nnw4545100 0.0 10181589
19:00+12nne3575100 0.1 1018343
22:00+9nnw2289100 0.1 101925
19 april, mon
mon1901:00+8nnw338977 0.0 101863
04:00+7nnw339086 0.0 101846
07:00+7nnw2486100 0.0 101893
10:00+10nne337496 0.0 1018508
13:00+11ne436999 0.0 1018894
16:00+11ne557199 0.1 1018724
19:00+9ne467994 0.0 1019466
22:00+8ne51088100 0.0 1020396
20 april, tue
tue2001:00+7ene71289100 0.0 1020547
04:00+6ene71194100 1.3 1021566
07:00+5e71287100 0.9 1022663
10:00+4e91485100 1.3 1022712
13:00+5e91374100 0.1 1023774
16:00+8ese101566100 0.1 10201014
19:00+7ese91673100 0.6 1020965
22:00+7ese111975100 2.5 1018878
21 april, wed
wed2101:00+6se111974100 2.1 1019923
04:00+4se112090100 7.8 1018830
07:00+3se102094100 3.1 1018851
10:00+3se101894100 3.8 1019808
13:00+4sse91793100 0.1 1020721
16:00+4sse81496100 0.3 1021611
19:00+4sse71297100 0.1 1022453
22:00+4sse51198100 0.1 1023359
22 april, thu
thu2201:00+5sse51098100 0.0 1024323
04:00+5se4899100 0.0 1024297
07:00+5se4899100 0.6 1025318
10:00+7sse4798100 0.9 1026270
13:00+9sse349097 0.0 1026399
16:00+11se668168 0.3 1026537
19:00+10se488862 0.1 1027346
22:00+7sse5108576 0.5 1028278